Regional Weather Roundup
Issued by NWS Upton, NY

Current Version | Previous Version | Text Only | Print | Product List | Glossary Off
Versions: 1 2 3 4 5 6 7 8 9 10 11 12 13 14 15 16 17 18 19 20 21 22 23 24 25 26 27 28 29 30 31 32 33 34 35 36 37 38 39 40 41 42 43 44 45 46 47 48 49 50
845 ASUS41 KOKX 020908 RWROKX REGIONAL WEATHER ROUNDUP NATIONAL WEATHER SERVICE NEW YORK NY 400 AM EST FRI DEC 02 2016 NOTE: "FAIR" INDICATES FEW OR NO CLOUDS BELOW 12,000 FEET WITH NO SIGNIFICANT WEATHER AND/OR OBSTRUCTIONS TO VISIBILITY. NYZ071-072-176-178-NJZ106-104-021000- NEW YORK CITY METRO AREA CITY SKY/WX TMP DP RH WIND PRES REMARKS Central Park CLEAR 40 27 59 W8 29.89F WCI 34 Wall St Helipt MOSUNNY 41 30 65 W10G16 29.89R Bronx Bot Gard NOT AVBL LaGuardia APRT CLEAR 44 28 53 W16G26 29.87F Kennedy INTL CLEAR 43 27 53 W15 29.89S Breezy Point N/A 41 N/A N/A W14G25 N/A Newark/Liberty PTCLDY 38 28 67 SW10 29.88S WCI 31 Teterboro PTCLDY 40 26 57 W6 29.87F $$ NYZ177-179-078>081-021000- LONG ISLAND NEW YORK CITY SKY/WX TMP DP RH WIND PRES REMARKS Jones Beach N/A 41 N/A N/A W15G22 N/A Matinecock PT N/A 43 N/A N/A W23 N/A Farmingdale CLEAR 40 28 62 W9 29.87R WCI 34 MacArthur/ISP CLEAR 40 28 62 W12 29.85S WCI 33 Shirley CLEAR 38 28 67 SW6 29.86R WCI 33 Westhampton CLEAR 36 27 69 SW8 29.86R WCI 30 Southampton NOT AVBL Bridgehampton NOT AVBL East Hampton N/A 38 29 72 W8 29.83R WCI 32 Montauk N/A 45 33 63 W14G24 29.83R $$ NYZ052-065-067-021000- HUDSON VALLEY CITY SKY/WX TMP DP RH WIND PRES REMARKS White Plains PTCLDY 38 27 64 W10G20 29.83F WCI 31 Newburgh PTCLDY 37 30 75 W9 29.84R WCI 31 Montgomery CLOUDY 37 29 72 SW8 29.83R WCI 31 Poughkeepsie PTCLDY 37 28 70 S3 29.83R Albany CLOUDY 39 30 70 W3 29.78R $$ NJZ001-105-106-008-010-013-015-019>022-104-021000- NEW JERSEY CITY SKY/WX TMP DP RH WIND PRES REMARKS Newark/Liberty PTCLDY 38 28 67 SW10 29.88S WCI 31 Teterboro PTCLDY 40 26 57 W6 29.87F Caldwell PTCLDY 38 27 64 SW5 29.88S WCI 34 Somerville PTCLDY 40 27 59 VRB6 29.88R Linden N/A 39 27 62 W6 29.89S WCI 34 Sussex CLOUDY 35 28 75 SW5 29.85S WCI 31 Andover N/A 36 27 69 SW5 29.86F WCI 32 Trenton CLEAR 37 26 64 W7 29.91S WCI 32 Millville CLEAR 39 31 72 W8 29.95S WCI 33 Atlantic City CLEAR 39 27 62 W9 29.94R WCI 33 Wrightstown CLEAR 38 28 66 W8 29.90S WCI 32 Toms River CLEAR 32 27 81 SW6 29.93S WCI 26 Belmar CLEAR 34 26 72 SW6 29.91S WCI 29 $$ PAZ047>061-062-071-021000- EASTERN PENNSYLVANIA CITY SKY/WX TMP DP RH WIND PRES REMARKS Philadelphia CLEAR 41 28 60 W9 29.95S Allentown PTCLDY 35 27 72 SW8 29.89F WCI 29 Scranton CLOUDY 38 29 70 SW8 29.85F WCI 32 $$ CTZ002-004>006-009-010-012-RIZ004-006-007-MAZ004-011-015-021000- SOUTHERN NEW ENGLAND IN CT CITY SKY/WX TMP DP RH WIND PRES REMARKS Bradley INTL PTCLDY 35 28 75 SW7 29.79S WCI 29 Hartford PTCLDY 39 29 67 S6 29.80S WCI 35 Danbury PTCLDY 37 27 67 W9 29.83S WCI 30 Wtrbury/Oxford CLEAR 37 25 60 SW3 29.82R Bridgeport N/A N/A N/A N/A MISG 29.83F Meriden PTCLDY 31 26 82 S7 29.82S WCI 24 New Haven PTCLDY 41 30 65 W8G16 29.83R Chester N/A 37 28 70 W8G14 29.81R WCI 31 Groton CLEAR 44 30 57 W10 29.81R Wilimantic PTCLDY 37 29 72 CALM 29.80R IN RI CITY SKY/WX TMP DP RH WIND PRES REMARKS Providence CLEAR 39 28 64 W10 29.78R WCI 32 Block Island CLEAR 44 33 65 W16G25 29.81R Westerly CLEAR 42 27 55 VRB7 29.81R IN MA CITY SKY/WX TMP DP RH WIND PRES REMARKS Boston PTCLDY 40 31 70 W13 29.74R WCI 32 Worcester CLEAR 35 28 75 W16 29.71F WCI 25 Westfield CLEAR 30 27 88 S8 29.78R WCI 22 Provincetown CLEAR 42 34 73 W20G25 29.74R Nantucket CLEAR 43 31 62 W15G23 29.76S $$ ANZ330-335-338-340-345-350-353-355-021000- COASTAL MARINE OBSERVATIONS STATION/POSITION TIME SKY/WX TEMP WIND PRES VSBY WAVE AIR SEA DIR/SP/G HT/PER (UTC) (F) (DEG/KT/KT) (MB) (MI) (FT/S) NY HARB ENTRANCE 0750 45 54 270/ 21/ 25 1011.7 3/ 4 20 S FIRE ISLAND 0750 46 55 290/ 25/ 31 1011.0 7/ 6 GREAT SOUTH BAY 0815 43 45 N/A 23 SSW MONTAUK P 0850 46 55 270/ 21/ 29 1010.5 7/ 7 15 E BARNEGAT LI 0830 55 N/A 4/ 4 HUDSON CANYON 0750 49 59 1011.4 8/ 7 KINGS POINT 0842 42 49 1011.1 EXECUTION ROCKS 0845 43 250/ 14/ 19 N/A CENTRAL LI SOUND 0815 46 52 260/ 21/ 25 N/A 4/ 5 EASTERN LI SOUND NOT AVBL ROBBINS REEF 0842 41 270/ 17/ 20 1011.7 $$ >>>>>>>>>>>>>>>>>>>>>>>>>>>> KEY <<<<<<<<<<<<<<<<<<<<<<<<<<< > < > SKY/WX - Sky Condition/Present Weather < > TMP - Temperature in Fahrenheit < > DP - Dew Point in Fahrenheit < > RH - Relative Humidity in Percent < > WIND - Direction (from) and Speed in MPH < > PRES - Mean Sea Level Pressure (inches of Hg) < > WCI - Wind Chill Index < > VSB - VISIBILITY IN MILES < > HX - HEAT INDEX < > TC - TEMPERATURE IN CELSIUS < > VRB - VARIABLE WIND DIRECTION < > < >>>>>>>>>>>>>>>>>>>>>>>>>>>> KEY <<<<<<<<<<<<<<<<<<<<<<<<<<<

USA.gov is the U.S. government's official web portal to all federal, state and local government web resources and services.